Wind_Speed
8 7 6 4 4 4 5 5 4 2 1 2 3 4 4 5 5 5 6 7 6 6 6 6 6 6 6 6 5 3 3 5 6 3 2 2 3 6 7 8 8 8 8 7 6 6 6 5 5 5 6 7 5 6 5 4 5 4 3 4 1 3 4 6 7 8 4 2 2 4 8 7 1 3 5 5 7 10 13 15 15 16 18 17 16 14 14 13
7 7 6 4 3 3 5 5 5 4 3 4 4 4 5 5 6 7 7 9 8 5 4 6 7 7 7 6 5 3 3 5 4 3 3 3 3 5 7 8 8 8 7 7 7 7 7 6 7 7 7 6 4 4 5 2 3 3 3 2 3 5 5 4 6 7 3 3 1 5 6 7 4 2 2 3 6 6 8 12 13 16 17 16 17 15 14 13
7 6 7 6 5 4 4 5 4 2 4 5 5 6 6 7 7 8 8 8 9 6 4 5 7 9 9 6 5 4 4 5 4 4 5 3 3 5 6 8 8 8 7 5 6 6 7 7 7 8 8 6 4 5 4 2 2 2 4 2 5 6 4 2 3 4 3 2 1 5 6 7 6 3 2 2 6 7 7 9 9 12 11 6 9 11 11 11
7 7 7 6 6 6 6 6 5 3 4 5 6 8 8 8 8 8 8 8 8 7 5 5 5 8 7 5 5 4 4 5 4 5 5 1 3 5 6 7 8 8 7 5 6 6 6 7 7 8 8 5 4 5 3 2 1 2 4 3 5 4 2 1 0 1 3 3 1 5 5 5 7 6 5 3 5 7 7 7 5 5 5 2 5 7 8 9
8 8 7 6 6 7 8 8 7 6 6 6 7 8 9 9 8 8 8 8 7 5 3 4 3 4 3 2 5 4 2 3 3 4 4 0 3 5 6 6 7 7 7 6 6 7 7 7 7 8 7 4 3 4 2 3 4 4 2 2 4 4 2 1 2 2 1 3 4 6 5 3 4 6 8 6 4 6 4 2 1 4 4 3 5 6 6 6
10 9 9 8 7 8 9 9 9 8 7 7 7 8 9 9 8 8 9 8 7 5 3 2 2 1 2 2 3 4 3 1 3 4 3 1 3 5 6 6 7 7 8 8 7 7 6 6 7 6 5 3 2 2 3 3 3 2 1 1 4 3 3 2 2 2 2 4 7 6 4 4 2 5 8 10 15 14 9 6 6 7 6 5 5 6 6 6
12 12 11 10 10 10 9 9 11 10 7 8 8 8 8 8 8 8 9 9 8 7 5 2 0 2 3 4 2 3 3 3 1 3 2 1 3 4 6 7 7 7 8 8 8 7 6 5 6 5 5 3 2 3 4 3 3 2 1 2 4 2 4 3 3 3 3 4 7 5 4 3 3 4 5 13 21 19 16 17 17 15 13 10 8 8 6 5
14 14 14 13 11 11 11 11 12 10 8 8 8 9 9 9 8 9 9 9 9 9 7 4 1 2 2 2 2 3 4 4 2 2 2 1 3 3 5 6 7 7 7 8 8 7 5 4 6 5 4 3 4 3 4 3 2 3 3 4 4 3 4 4 3 3 2 3 4 4 5 5 5 5 8 18 20 15 14 17 20 20 18 15 12 10 7 4
15 15 14 13 11 11 11 10 11 10 10 10 9 9 9 9 9 9 9 9 10 10 8 7 4 1 2 3 2 2 4 2 1 3 1 1 2 3 4 5 6 7 7 7 8 7 5 5 6 6 3 4 6 4 4 3 1 2 5 6 6 4 4 4 2 2 2 2 3 4 6 5 3 5 10 14 10 5 4 7 12 16 16 15 12 10 7 5
16 15 14 12 11 11 11 10 11 11 12 10 9 9 8 9 9 10 8 8 10 10 9 9 7 5 5 5 2 2 1 0 1 3 1 0 1 2 2 3 5 7 8 8 8 7 6 5 6 7 5 6 8 4 2 2 3 7 11 9 7 5 3 2 2 1 2 3 2 4 5 4 1 2 6 6 2 5 4 8 8 11 12 10 9 9 8 7
16 14 13 12 12 12 11 11 12 12 11 10 9 8 8 9 9 8 7 8 10 9 8 9 8 7 7 6 1 4 1 1 1 2 2 1 0 1 1 2 4 6 8 7 7 7 6 6 7 7 4 6 8 5 4 7 9 13 13 9 6 3 2 1 0 1 2 1 2 4 5 3 1 1 8 9 5 8 11 10 6 7 9 8 9 9 9 9
14 14 14 13 12 12 11 11 11 11 10 9 9 8 8 9 8 6 5 6 6 5 6 7 6 6 6 3 4 5 2 1 0 1 2 2 1 1 0 2 4 6 7 6 6 6 5 6 7 5 5 10 7 4 7 9 10 9 7 4 4 5 2 3 2 2 3 1 4 4 3 4 2 6 8 7 6 8 9 6 4 5 8 8 9 9 10 9
14 15 14 13 12 12 11 10 10 10 10 9 8 7 6 7 5 3 3 3 3 3 3 4 3 3 2 1 4 4 2 2 1 2 3 3 2 2 2 3 4 5 6 5 5 6 5 6 7 6 10 10 5 6 9 7 6 3 2 3 2 5 3 4 3 3 3 1 5 3 3 5 7 9 7 6 8 6 4 3 3 4 5 7 8 8 9 8
15 14 13 14 13 11 11 10 10 9 9 7 6 5 5 5 4 2 0 1 2 3 3 2 1 2 1 4 4 3 2 2 2 3 5 5 5 4 5 5 5 5 6 5 6 7 6 5 7 8 10 9 10 12 8 4 4 1 1 2 2 1 3 4 4 4 2 1 5 3 1 6 8 9 4 6 8 5 3 2 3 5 5 6 7 7 8 7
14 14 14 14 13 12 11 11 10 9 7 5 5 5 4 5 5 2 2 2 1 2 3 2 1 2 4 5 4 2 2 2 2 3 4 5 6 6 7 7 6 5 6 7 7 8 8 7 8 9 10 11 13 9 4 4 3 2 1 2 3 0 4 5 4 4 2 2 5 4 1 6 8 8 3 2 2 2 4 4 4 6 6 6 7 8 8 7
14 14 15 14 13 12 12 10 8 6 5 5 5 5 4 5 6 5 2 3 2 1 2 2 3 4 5 3 2 2 2 2 3 3 3 4 5 6 7 9 9 9 9 9 9 10 10 8 9 10 8 8 7 4 4 3 4 4 1 2 2 1 3 4 2 5 4 2 4 3 2 5 4 4 1 2 3 6 10 11 9 8 8 8 8 9 9 7
11 13 14 14 13 12 10 8 6 5 5 5 4 4 4 4 5 6 4 3 1 0 1 3 4 3 3 2 2 2 2 3 3 4 4 5 4 4 6 7 9 10 11 11 9 8 7 6 7 6 4 4 3 4 3 3 4 4 3 1 2 2 1 3 1 5 8 3 3 3 2 7 8 9 12 13 14 16 18 19 18 15 13 11 11 11 9 8
7 9 10 11 11 10 8 7 6 5 5 6 4 2 2 2 2 3 2 1 0 1 2 3 3 3 2 2 2 0 2 3 3 5 5 4 4 4 5 6 8 9 8 8 5 4 4 4 5 2 4 5 4 5 3 3 3 2 1 1 2 1 2 3 3 4 8 5 2 3 4 11 12 13 21 22 18 17 18 19 20 19 17 15 14 13 10 9
4 5 7 8 8 8 8 7 6 6 7 7 5 4 3 3 2 1 2 2 2 1 2 1 3 2 1 1 1 1 2 3 3 5 5 4 4 4 6 7 8 6 4 3 2 5 4 4 4 2 2 2 3 3 5 5 4 4 4 4 2 1 3 4 3 3 5 4 4 4 6 11 13 12 17 21 17 14 16 16 17 18 16 15 15 13 11 10
3 5 6 6 7 8 8 7 6 8 8 7 6 3 1 2 1 1 1 1 3 4 2 1 3 3 1 1 1 2 2 2 2 4 4 4 5 6 7 8 6 2 1 1 1 4 4 4 4 2 4 3 3 3 4 3 4 5 4 4 3 1 4 3 3 5 4 2 4 4 5 10 13 12 14 18 15 12 14 14 16 17 15 14 13 12 12 10
4 4 5 5 6 8 8 7 7 8 6 6 5 1 2 1 1 1 2 5 7 6 4 3 4 4 4 3 0 2 2 2 2 2 3 3 6 6 5 5 3 3 3 2 1 3 4 5 1 4 5 4 3 3 4 4 4 4 5 3 2 1 5 3 1 5 5 2 3 2 6 11 12 11 13 13 9 7 9 10 12 13 11 11 10 10 11 11
4 4 4 5 6 7 8 8 8 7 5 4 3 2 4 5 4 2 2 4 5 6 5 4 4 3 4 5 2 1 2 1 2 0 2 4 6 4 3 3 5 2 3 3 1 4 5 3 3 4 5 5 4 3 4 4 5 4 3 3 2 1 4 4 2 4 5 2 4 5 7 12 12 10 11 9 6 6 5 6 8 8 7 7 8 9 11 12
4 4 4 4 5 7 8 8 8 6 4 2 2 3 5 4 2 3 3 4 4 3 3 3 3 3 4 5 4 1 2 1 2 2 1 3 4 2 3 5 5 2 4 4 3 2 2 2 3 3 5 5 4 3 4 5 4 3 3 3 1 3 3 3 3 5 4 1 4 5 5 9 9 7 7 6 6 7 6 5 6 6 7 6 7 9 11 12
4 3 3 4 5 7 8 8 7 4 3 3 4 3 2 1 5 6 3 3 1 1 2 3 3 4 4 5 4 4 5 5 4 5 4 2 4 3 4 4 4 4 4 2 6 6 1 2 1 4 2 3 3 4 4 4 3 3 2 4 1 1 1 4 4 6 4 1 2 4 5 6 5 5 6 4 4 6 5 5 5 6 7 7 7 8 10 12
3 2 2 3 4 5 6 6 4 3 4 3 3 3 3 5 6 3 2 2 1 2 1 1 2 3 2 3 2 3 4 5 7 7 5 5 4 4 4 3 4 3 1 1 7 7 2 0 1 3 3 3 4 2 0 3 2 3 1 3 4 3 3 4 6 5 4 3 2 4 4 5 5 4 6 5 6 5 4 3 5 6 7 8 8 7 9 11
2 2 3 3 4 5 4 3 1 0 2 1 5 6 7 5 2 2 2 3 1 3 1 0 1 1 1 3 2 2 1 2 7 9 5 5 3 4 4 3 4 3 5 3 5 3 2 1 1 3 3 4 5 1 2 3 3 1 1 3 4 4 2 1 4 3 2 2 2 3 1 4 6 5 6 4 6 7 6 3 3 5 7 8 8 8 9 10
2 2 3 4 6 5 3 3 3 1 3 3 6 9 7 2 2 2 2 4 1 2 1 1 0 1 1 4 2 3 0 1 4 8 7 5 3 4 3 1 3 3 3 3 3 1 1 2 3 4 4 4 3 1 2 3 4 0 2 4 4 3 2 1 3 2 1 3 3 4 2 2 4 6 6 3 4 6 6 4 3 2 6 7 8 9 9 9
3 2 2 3 4 4 4 4 2 0 2 3 5 8 7 1 3 0 3 3 1 1 1 1 1 2 2 3 4 3 1 1 2 4 7 7 3 3 2 1 4 4 1 2 1 2 1 1 0 2 4 2 1 1 2 3 3 2 3 4 3 3 3 3 4 1 1 2 3 4 3 0 5 6 5 3 0 4 6 6 5 1 4 7 9 10 10 10
4 3 2 1 2 3 3 3 0 1 1 1 3 6 6 3 2 2 4 1 1 1 1 0 2 1 4 2 3 4 2 2 2 2 4 7 5 4 5 5 9 7 4 4 3 2 1 1 1 3 2 1 1 1 0 2 2 3 5 3 3 3 3 3 3 1 2 2 4 4 2 0 4 6 3 2 1 6 7 6 6 2 4 8 10 11 11 11
6 5 4 2 1 0 1 1 2 2 2 2 3 5 4 1 2 5 2 2 0 1 1 1 2 4 5 2 3 6 3 2 4 4 4 6 7 8 11 8 7 7 5 7 5 1 1 2 1 2 2 3 4 2 2 2 3 5 5 3 3 3 3 3 2 2 3 3 6 4 2 0 3 5 4 3 4 6 6 4 5 4 6 11 12 12 12 12
6 6 5 4 3 3 3 2 2 3 3 3 4 4 3 1 4 5 1 2 1 1 2 1 2 4 5 2 2 5 3 4 6 5 4 5 6 6 8 5 2 4 4 5 4 2 2 3 1 1 2 4 6 4 4 3 3 4 3 2 2 3 3 3 4 3 2 4 6 4 3 1 2 5 5 5 6 5 7 6 6 7 9 13 14 13 13 12
5 6 6 6 5 5 5 4 3 2 3 4 5 5 4 2 1 2 2 2 1 1 1 1 2 3 4 2 2 4 2 3 6 5 2 2 4 3 2 2 2 3 4 2 2 2 1 0 1 1 1 2 3 2 3 4 3 3 2 3 3 3 4 2 3 2 2 5 3 2 2 1 5 7 6 7 7 6 7 8 10 12 14 15 15 14 13 11
4 5 5 6 6 6 6 5 3 3 4 5 7 5 5 4 1 3 2 2 1 1 1 1 1 1 1 2 2 3 1 1 4 3 1 1 4 3 1 2 3 2 0 1 1 3 2 2 1 1 1 1 2 1 1 1 2 2 2 3 3 2 3 3 4 2 3 3 2 3 2 2 5 5 5 8 6 4 6 8 11 15 16 15 15 14 12 11
3 4 4 5 5 6 6 5 4 4 5 8 7 3 4 1 3 2 2 3 1 2 2 1 1 1 2 1 1 3 1 0 2 3 2 2 3 2 1 1 1 3 4 2 1 1 0 3 1 1 1 0 1 1 2 2 3 2 3 4 3 3 2 3 4 2 4 4 3 4 2 3 3 2 4 8 8 5 3 7 10 13 14 15 15 14 13 12
4 3 4 4 4 5 4 5 6 6 9 9 5 5 2 3 3 2 3 4 1 1 1 1 2 4 3 3 2 1 1 1 2 3 3 2 2 2 2 2 1 2 4 2 1 2 1 4 2 1 1 1 1 2 1 3 2 1 2 4 2 2 3 1 3 4 2 3 3 3 3 4 3 4 5 5 6 3 2 6 10 13 14 15 15 15 15 13
4 4 4 3 4 4 4 6 7 8 11 8 5 3 4 4 2 3 2 1 2 3 2 1 3 4 2 4 3 3 1 0 2 2 1 1 2 3 2 3 2 2 3 4 2 1 1 3 2 2 2 1 0 2 0 1 1 1 2 1 2 3 5 4 1 1 3 1 3 2 3 5 3 4 5 4 0 2 1 5 9 13 14 15 15 16 16 14
5 4 4 3 4 4 6 7 9 11 10 5 4 2 5 2 1 3 1 1 1 3 4 1 0 1 2 2 2 3 1 1 2 1 1 2 1 4 2 2 2 2 2 3 2 2 2 2 3 1 1 1 1 0 2 2 1 2 2 3 2 2 4 3 0 3 4 0 4 2 3 5 2 2 5 3 4 6 5 5 7 10 13 15 17 18 17 16
4 4 3 4 4 5 7 8 10 11 7 4 1 4 3 1 1 1 1 1 1 3 4 2 1 0 2 2 2 2 1 1 2 1 2 1 1 3 4 2 2 1 0 2 1 1 2 1 4 0 1 2 2 1 2 4 3 2 2 2 1 2 1 2 1 1 1 2 4 4 4 3 3 4 3 4 9 9 8 7 6 9 14 17 18 20 19 18
4 3 3 3 5 6 7 8 10 8 4 2 2 3 1 1 1 1 2 1 1 2 2 2 0 1 3 4 2 2 2 3 2 1 1 1 1 2 2 2 2 1 0 3 2 1 2 1 3 2 1 2 2 1 2 1 3 2 1 1 1 3 3 1 1 3 2 2 3 4 5 3 6 6 6 9 12 11 10 9 7 12 18 20 20 22 22 20
6 3 2 3 6 7 8 9 9 5 2 2 4 3 0 1 1 2 2 1 1 2 1 2 1 1 3 3 2 1 1 1 3 2 1 1 1 2 1 1 3 3 1 1 1 1 3 1 3 3 2 1 1 2 4 5 3 2 1 0 1 1 2 1 1 1 3 2 2 1 4 6 6 4 7 10 10 10 12 10 9 15 21 21 20 23 23 21
6 2 1 4 6 8 10 9 4 3 3 1 2 1 0 1 1 1 2 1 1 1 1 3 3 2 3 2 2 2 2 1 2 1 2 2 1 1 1 1 3 4 2 1 1 1 1 2 2 2 2 2 4 3 2 4 4 4 4 3 3 3 3 2 3 2 2 2 3 3 3 8 6 4 6 7 6 8 10 10 11 18 23 20 19 21 21 20
5 1 1 5 7 10 10 5 2 3 3 2 1 1 0 1 1 1 2 2 0 1 1 2 2 2 3 2 1 3 3 1 1 1 2 3 2 0 0 2 2 4 4 1 2 2 2 3 2 2 3 3 3 2 1 1 2 4 2 1 3 3 4 5 3 3 1 1 1 3 2 8 7 3 4 6 6 7 9 11 14 19 22 19 16 18 20 19
4 2 2 4 8 11 8 1 3 2 1 1 1 1 1 1 1 1 2 2 1 1 1 0 1 2 2 1 2 3 3 3 4 3 3 3 1 1 1 2 2 3 3 1 1 1 2 3 1 3 3 2 3 2 1 2 3 2 2 1 3 2 3 5 4 3 3 3 3 2 3 8 6 3 4 8 9 9 11 14 18 20 21 19 16 16 18 20
3 4 3 3 8 11 6 2 2 2 2 1 2 1 1 1 2 2 1 3 2 2 2 1 1 2 1 1 2 2 2 2 3 2 2 3 1 0 1 2 2 2 1 1 2 2 1 1 2 1 4 5 5 4 3 3 0 2 2 1 3 3 5 3 2 3 1 5 6 5 5 8 6 4 4 6 5 8 12 16 20 21 21 22 18 15 17 21
2 3 3 3 7 10 5 3 4 3 2 1 1 1 1 1 3 3 2 2 3 3 2 1 1 2 1 2 2 1 0 0 1 1 1 1 1 0 1 1 1 1 1 1 1 2 2 1 3 4 2 3 3 3 3 2 1 2 1 2 3 4 5 3 2 3 3 4 6 6 7 7 6 6 7 6 4 6 10 14 20 22 22 23 20 16 16 20
2 1 2 1 4 6 3 2 3 4 4 3 1 1 1 1 2 3 2 2 2 3 2 1 2 2 2 1 2 0 1 1 1 1 1 2 1 1 1 1 0 1 2 2 1 2 2 1 2 5 6 6 5 5 4 2 2 2 2 3 5 5 4 4 4 3 5 3 3 9 9 9 12 9 6 7 5 6 7 11 18 22 23 23 21 16 14 18
2 2 1 1 1 1 2 1 2 3 4 4 2 1 2 1 1 1 3 3 2 3 2 0 2 3 2 3 2 1 2 1 2 1 1 2 1 1 0 1 1 1 2 2 1 3 4 1 3 5 6 6 5 5 2 1 3 6 5 4 6 7 6 6 6 6 6 4 7 10 7 8 16 12 7 8 7 5 7 12 20 24 24 23 20 16 13 17
2 2 2 2 1 1 1 0 1 4 4 3 2 1 1 2 1 2 4 2 1 4 3 1 3 5 6 5 3 2 2 1 2 3 2 1 1 1 1 1 1 2 2 1 1 3 4 2 3 2 5 6 3 2 2 3 4 5 6 7 8 9 10 12 13 9 8 7 13 8 7 9 17 12 8 9 10 10 14 19 22 21 21 22 19 15 15 18
2 2 3 4 3 2 3 1 2 5 4 3 1 2 3 4 5 4 2 2 1 2 3 3 6 7 6 5 4 3 3 3 2 3 3 3 2 2 2 1 2 3 2 1 1 1 3 3 2 2 4 7 3 3 2 4 4 4 7 10 9 10 14 15 13 11 10 14 18 13 9 14 19 14 8 11 14 15 18 19 18 17 20 21 19 19 20 23
3 2 4 5 2 4 5 2 4 5 2 2 1 3 3 6 6 4 3 5 2 1 4 5 6 4 4 5 5 4 6 7 2 2 5 5 1 3 3 3 3 2 0 1 0 0 2 3 1 3 2 7 4 4 3 2 4 6 10 11 9 9 11 12 12 8 8 14 18 14 12 18 20 12 9 16 20 17 16 19 22 24 24 23 23 23 23 27
5 4 5 5 3 3 4 2 4 5 1 0 3 3 3 6 7 4 3 5 5 4 6 8 5 2 2 2 6 8 8 5 1 2 5 5 2 3 3 3 6 5 2 2 1 1 2 1 1 5 2 6 4 5 6 4 3 8 13 13 12 11 9 10 9 8 11 15 14 7 8 16 15 5 7 15 18 16 17 23 28 29 27 24 24 23 25 29
6 6 6 5 2 2 4 3 4 3 2 3 5 4 3 4 6 7 3 4 5 5 6 8 7 5 3 3 8 10 8 4 1 2 2 2 0 2 3 3 7 7 5 4 2 1 3 3 1 3 1 6 5 4 4 6 5 8 12 11 13 13 11 8 6 9 14 14 9 7 11 15 7 3 5 8 9 12 19 26 30 31 29 25 23 23 25 31
Wind_Direction
166 173 181 192 209 236 234 222 215 214 292 314 293 283 268 258 268 299 327 333 309 269 265 266 262 264 277 295 303 329 358 353 353 3 139 135 146 157 162 171 174 181 186 189 189 189 188 180 179 161 154 152 122 116 116 93 103 104 93 91 174 188 202 190 181 195 175 327 273 187 182 171 195 225 226 259 253 258 262 258 255 254 254 257 264 271 279 287
172 177 190 199 208 229 231 226 230 242 274 286 288 300 307 301 299 317 337 344 337 313 275 269 276 281 286 293 284 288 331 330 337 29 60 82 125 152 161 167 174 181 181 187 194 195 194 191 188 180 172 153 116 133 147 87 79 91 99 108 229 203 203 194 181 198 174 14 273 180 186 189 198 228 242 257 259 278 278 268 260 260 264 264 265 269 275 278
177 184 206 213 222 230 226 222 214 233 283 286 300 317 321 322 317 324 336 336 335 334 316 301 300 299 295 276 257 266 295 300 315 11 25 58 127 158 171 179 181 182 183 186 191 193 195 187 181 182 172 146 121 146 146 71 65 85 101 148 245 215 205 212 189 198 208 316 344 175 193 204 217 247 266 262 290 294 269 265 259 263 277 275 263 264 269 272
184 187 208 222 242 255 253 244 232 251 301 304 312 321 321 324 321 320 325 325 328 328 325 333 320 304 293 248 232 243 270 286 307 352 359 43 148 165 179 192 187 187 191 186 185 186 182 173 169 172 158 128 117 140 126 51 100 118 121 180 227 198 165 181 183 326 250 263 218 179 178 214 234 246 256 268 319 294 262 260 257 280 294 230 242 259 266 272
201 199 208 226 249 260 260 253 248 259 292 309 313 315 315 318 316 312 313 314 318 312 309 341 332 305 301 215 207 209 251 302 304 329 335 298 164 179 187 193 190 192 196 192 190 183 177 172 162 156 139 110 106 124 99 69 103 111 97 210 197 170 131 112 15 1 248 203 181 170 164 217 236 246 252 234 236 256 262 268 265 1 342 245 243 255 266 280
217 215 219 238 254 261 259 251 246 248 271 297 305 305 307 310 303 301 304 305 303 280 263 305 342 359 35 79 166 204 222 254 290 311 326 240 173 193 195 193 191 194 203 199 194 192 188 175 160 140 110 80 72 110 118 105 112 126 323 221 176 145 90 94 41 51 104 163 176 176 200 225 233 263 259 236 238 252 263 265 273 302 308 282 264 259 274 292
225 230 232 246 261 265 266 259 248 245 265 288 296 299 300 295 287 290 293 298 294 267 244 249 57 74 51 49 114 180 173 139 314 322 337 243 188 193 194 198 197 195 204 203 203 202 193 175 163 133 94 81 113 117 102 100 102 121 201 195 166 110 84 100 86 103 113 177 189 189 221 224 239 275 277 258 263 273 273 265 267 272 275 275 266 263 280 296
227 241 244 250 260 265 273 274 253 245 274 288 287 290 289 283 277 282 286 291 284 261 242 227 166 94 47 10 187 157 94 87 27 358 2 248 202 192 190 198 198 195 201 206 208 200 193 187 173 150 100 94 150 132 96 97 64 88 157 171 140 112 115 112 101 124 147 198 202 216 244 250 261 277 274 276 286 293 280 267 258 255 257 259 256 258 272 281
236 249 249 250 261 265 271 271 249 249 280 284 279 282 281 278 276 282 284 282 272 256 245 229 214 250 327 330 235 158 61 56 20 24 21 243 218 207 195 196 194 196 198 199 199 196 200 199 194 195 177 133 133 105 89 132 251 121 136 142 122 112 129 136 152 157 203 229 227 246 268 269 272 296 276 281 295 276 291 297 260 241 239 246 247 249 256 258
241 248 245 248 264 268 266 258 248 259 277 276 275 279 277 276 278 280 275 270 265 256 248 232 230 265 292 303 267 149 45 350 17 20 26 321 238 217 199 198 191 190 190 187 190 196 204 216 212 195 163 135 123 74 55 136 153 122 114 110 102 111 136 147 212 246 273 256 270 251 265 266 239 337 269 262 197 206 293 328 283 236 230 236 236 238 245 242
236 241 245 250 261 264 260 255 256 265 272 272 276 278 274 275 277 275 272 269 263 251 239 226 236 280 294 285 132 122 175 210 9 2 27 35 288 269 269 198 183 180 180 179 187 200 219 231 204 180 156 143 125 73 87 112 115 115 108 99 63 74 137 33 254 309 319 264 302 260 259 290 110 203 249 252 245 260 287 298 280 237 232 232 231 236 238 235
229 245 253 254 260 261 256 255 260 266 267 269 275 272 267 273 275 272 271 264 248 227 217 224 251 295 292 267 108 113 159 153 67 15 58 70 69 332 345 163 171 169 171 181 196 206 213 203 189 178 146 146 138 81 109 112 111 111 102 110 4 14 61 355 3 342 334 292 318 306 304 332 213 228 256 279 283 286 291 271 248 237 233 233 235 239 238 237
238 255 260 260 259 255 251 255 260 263 263 267 271 263 258 264 254 240 250 239 207 178 186 219 273 308 290 107 98 117 161 151 129 86 85 89 87 82 86 126 158 163 169 180 192 190 176 181 186 159 134 140 135 115 124 105 103 111 62 117 7 6 4 345 2 328 325 304 327 346 325 304 256 250 263 293 291 293 300 235 232 238 227 232 234 238 243 243
248 253 257 258 254 249 251 255 257 260 262 264 258 240 238 227 187 160 142 160 167 168 175 181 313 280 158 108 110 134 162 158 131 105 101 94 90 95 95 111 138 159 173 174 180 174 150 162 175 142 121 121 123 121 111 45 67 109 33 87 33 349 276 325 8 335 343 323 344 45 269 270 274 285 290 292 287 278 276 237 238 248 234 238 238 242 248 241
245 244 247 249 247 247 248 250 252 254 253 247 228 216 218 204 189 170 58 67 84 195 198 173 110 160 125 105 121 144 142 144 136 119 108 97 87 92 100 108 121 137 155 163 167 151 128 139 142 115 103 110 118 113 48 3 25 37 72 301 343 99 267 311 13 15 54 294 346 66 219 272 277 285 305 330 310 269 281 269 246 253 251 252 250 252 252 235
243 242 241 242 242 242 243 245 243 239 237 228 214 216 228 215 214 232 286 348 357 223 208 185 169 147 114 99 129 128 124 122 121 131 122 107 94 95 103 107 115 121 128 135 137 131 127 129 112 96 102 109 102 83 47 23 350 355 69 229 285 104 287 310 30 24 31 330 342 45 244 275 267 267 3 35 313 307 299 284 266 258 257 257 255 254 255 242
249 242 237 235 234 235 236 232 221 220 218 202 196 219 235 221 229 249 268 315 352 355 169 164 161 131 89 110 135 101 136 134 126 149 140 122 119 120 124 121 120 120 121 122 120 125 127 121 114 99 80 74 62 82 69 342 310 325 19 94 241 195 253 303 318 1 14 22 335 5 263 256 260 276 282 281 291 297 291 281 273 265 259 256 254 252 254 252
244 231 225 223 225 225 219 206 202 204 188 171 165 176 175 172 215 241 228 216 350 73 141 144 125 113 81 97 125 23 178 165 158 160 152 140 137 141 154 147 135 131 125 119 104 102 108 95 113 95 26 34 30 74 119 235 213 226 275 125 300 287 228 267 270 345 12 18 319 327 274 266 274 282 283 286 296 293 283 276 270 265 259 250 248 247 246 250
215 202 201 208 210 207 198 192 192 185 171 157 147 129 110 116 122 155 205 234 237 167 156 24 51 118 177 40 108 190 183 179 179 172 168 154 135 139 159 157 155 158 147 132 46 46 73 62 73 81 27 22 358 90 153 189 164 166 172 148 147 275 261 249 257 317 16 360 288 258 260 278 287 288 288 296 306 294 278 272 264 259 253 244 243 243 239 241
182 179 186 195 195 193 188 185 185 179 171 161 153 134 114 139 105 169 235 41 98 116 113 45 55 84 84 19 170 178 159 153 156 173 181 176 157 144 150 161 163 134 75 168 352 20 56 64 66 177 199 197 228 182 140 125 115 122 110 91 111 210 285 278 288 318 14 351 270 247 268 280 282 282 287 298 306 293 273 264 258 253 247 244 241 236 229 228
163 172 183 189 190 189 184 182 182 176 171 167 169 210 287 259 348 31 94 74 82 91 88 87 78 66 57 39 301 186 161 116 77 169 187 188 176 166 165 167 138 54 3 284 269 2 54 84 110 218 197 170 183 170 118 86 79 84 99 77 46 225 265 274 290 313 353 354 273 324 317 285 279 282 287 297 302 290 273 255 254 251 243 241 235 224 217 215
153 166 173 182 188 186 183 182 178 171 167 170 188 277 302 289 273 255 104 88 83 80 79 84 75 61 58 46 42 169 177 98 57 143 196 188 181 197 205 130 97 104 343 341 4 17 42 106 210 216 160 108 76 108 107 87 85 70 89 90 17 296 277 298 314 322 351 338 280 350 344 291 286 287 284 288 274 280 289 256 247 236 221 216 212 208 204 206
150 158 166 181 183 184 186 180 170 167 176 196 261 287 309 312 237 180 126 107 88 68 67 62 55 53 50 40 37 85 140 91 37 19 348 201 180 157 141 103 86 102 5 12 128 92 48 199 209 172 150 112 52 46 87 86 79 60 77 103 283 316 360 315 305 324 327 290 286 331 328 288 297 310 292 284 268 276 283 263 248 218 202 187 188 198 199 202
142 148 163 174 180 189 191 185 182 200 249 272 283 270 291 47 132 133 107 95 71 42 69 46 49 59 51 40 40 77 89 70 31 19 27 108 144 108 99 104 83 66 7 22 116 108 93 254 162 118 123 135 95 42 79 94 31 3 96 124 175 285 309 255 286 323 325 357 340 346 333 296 321 338 295 300 307 289 277 260 240 200 189 180 180 186 191 197
128 125 132 146 174 190 192 197 212 253 288 279 245 197 145 129 138 135 37 64 340 303 33 17 28 49 43 32 40 98 87 64 40 30 38 67 101 120 95 79 73 92 227 96 89 90 89 266 157 112 52 76 111 56 116 138 35 335 231 167 161 178 220 274 311 342 15 23 7 25 3 294 317 311 260 301 340 310 301 268 217 192 183 180 175 172 178 185
120 105 89 99 132 144 159 170 166 9 355 225 186 165 142 131 140 274 350 62 317 293 340 209 21 34 349 6 23 139 85 35 44 34 42 58 69 125 105 42 52 125 186 138 87 95 108 72 103 126 100 70 81 73 239 146 104 18 221 173 152 143 148 342 353 13 32 301 316 44 94 259 317 298 245 306 339 309 309 295 219 191 190 187 173 171 175 179
161 118 83 95 116 108 104 121 117 80 57 113 170 172 163 133 18 304 16 48 324 278 91 184 75 32 359 9 28 146 231 273 68 36 39 53 54 121 116 348 60 94 159 129 93 68 94 62 47 72 86 76 81 110 210 134 106 238 190 137 131 122 145 140 66 72 244 277 334 22 78 209 297 276 256 306 332 308 303 278 276 178 183 185 173 174 174 175
200 168 107 98 107 91 97 122 124 83 90 121 169 186 193 244 334 328 88 72 299 325 59 186 125 64 31 36 53 102 128 141 105 20 33 53 47 103 109 165 130 115 69 105 188 274 78 91 132 97 76 86 175 214 187 134 84 240 189 138 148 146 146 132 90 88 301 345 319 330 29 161 264 276 306 1 225 270 263 245 266 290 155 160 161 166 166 167
216 210 194 124 100 95 117 144 191 247 194 173 181 202 217 262 309 60 82 108 282 50 57 45 148 20 350 28 42 44 69 59 50 13 32 52 41 70 97 111 124 115 50 62 138 192 68 358 196 138 100 171 206 354 126 123 71 166 152 102 78 81 82 85 84 102 28 10 256 276 5 264 266 279 312 27 213 238 243 247 257 241 147 145 147 152 157 159
226 227 225 239 252 111 171 225 265 258 242 225 199 205 216 251 62 68 48 253 233 13 334 332 232 308 344 29 14 9 44 30 18 42 59 67 63 82 102 106 110 103 46 43 80 119 32 50 69 83 88 144 126 57 18 63 101 130 118 76 53 35 40 56 50 87 56 317 251 263 312 193 279 278 230 198 218 203 195 228 246 209 149 145 146 149 154 155
228 232 238 251 261 270 271 270 274 258 241 215 191 184 177 103 71 91 207 243 116 333 347 16 288 343 16 95 42 356 18 8 359 26 47 51 53 67 91 97 68 63 25 23 48 360 12 46 22 68 107 119 106 69 21 37 95 112 94 68 45 346 6 28 356 35 86 271 260 264 283 165 224 262 239 235 249 212 178 180 189 177 150 144 147 151 155 156
224 232 244 253 260 266 261 264 274 243 223 193 169 161 137 63 22 174 263 320 17 301 358 359 305 22 20 31 44 339 324 360 4 37 66 32 46 40 62 149 155 33 345 324 23 350 357 26 326 67 144 143 110 67 20 13 39 73 66 59 49 350 1 1 322 350 200 246 270 267 274 235 233 244 248 253 258 240 210 185 168 165 154 147 149 152 155 159
224 230 241 251 258 263 255 254 247 214 204 173 162 148 89 72 233 220 280 328 346 309 42 43 330 60 2 359 18 314 283 358 353 31 103 91 66 48 338 185 148 85 328 217 35 7 349 312 355 50 278 185 139 132 23 346 39 87 119 89 83 62 31 317 282 301 275 262 283 284 282 280 271 265 238 236 252 253 222 199 174 163 156 153 155 155 159 162
226 226 234 244 249 250 248 239 220 201 183 164 154 109 71 110 235 205 262 258 259 350 33 70 355 25 42 49 282 277 182 70 340 22 22 28 62 50 293 285 59 88 106 128 176 130 98 290 287 121 269 92 165 216 172 137 108 134 161 118 120 145 143 256 248 242 285 294 297 301 279 199 231 270 228 239 271 290 230 199 184 171 162 161 162 163 165 165
226 222 225 232 229 230 227 213 204 186 173 163 118 71 124 231 249 190 235 247 231 4 337 79 75 54 11 332 308 303 148 281 1 41 20 25 149 182 197 224 229 112 121 148 221 136 155 254 253 311 300 119 210 248 129 98 105 194 155 97 91 170 150 165 195 191 237 317 301 279 235 217 220 268 283 288 287 283 190 186 184 179 174 170 170 169 168 167
221 215 213 214 211 208 197 193 185 173 174 159 77 71 194 229 233 180 198 189 144 150 148 359 59 69 330 304 337 4 31 318 19 47 354 303 194 194 191 215 207 139 135 153 194 163 91 271 290 356 348 62 61 253 15 56 198 170 117 144 223 150 118 112 207 300 68 22 283 261 255 295 318 283 309 360 196 238 217 186 186 182 180 179 179 174 172 171
212 208 208 204 203 194 186 183 170 172 179 143 87 205 217 220 189 190 189 96 154 128 108 110 345 116 239 264 301 317 339 306 341 33 231 267 211 180 180 226 201 173 155 146 191 183 142 264 299 50 142 323 351 70 39 24 71 101 125 215 221 112 94 99 355 351 42 231 280 302 261 293 328 276 317 20 183 227 244 215 203 195 190 191 187 179 176 173
197 195 201 197 197 191 184 178 168 172 169 103 91 241 216 178 210 199 174 131 123 83 94 161 230 208 190 199 260 273 160 235 304 16 202 248 231 171 155 168 193 215 191 115 134 215 132 266 298 303 173 306 339 120 27 9 35 93 150 178 127 131 122 71 122 259 356 285 287 308 291 263 215 224 260 216 201 211 221 221 221 212 205 200 190 181 178 174
195 198 207 197 189 186 181 174 170 170 141 95 223 248 222 212 266 157 163 147 95 95 118 205 250 52 165 175 208 219 181 212 215 145 196 199 233 195 151 157 184 220 247 119 134 240 100 118 283 261 191 314 351 190 225 306 36 57 76 8 32 153 164 136 136 175 209 259 274 314 325 271 230 216 196 206 208 195 196 205 213 214 209 203 192 184 182 178
200 200 218 198 181 178 174 166 164 158 113 154 203 212 267 246 241 169 167 143 118 134 190 203 143 122 199 198 216 200 128 202 178 166 233 223 220 240 234 167 156 161 233 98 136 74 70 114 252 288 317 279 235 213 201 178 143 115 125 183 274 140 141 201 302 134 141 175 198 287 306 269 247 210 187 209 215 198 195 195 201 211 208 202 194 189 185 181
197 203 244 193 174 170 164 153 138 113 111 183 212 197 306 201 169 183 179 159 131 136 167 168 157 177 185 192 234 201 136 153 180 183 246 223 201 259 302 140 147 148 129 94 172 181 107 143 191 267 295 228 235 259 207 172 162 155 164 182 178 151 121 123 298 311 102 151 181 162 268 271 258 206 199 216 215 211 211 200 200 208 204 200 196 190 187 184
187 181 216 183 176 172 161 138 43 62 115 164 207 170 200 169 139 169 179 172 143 127 134 139 152 173 168 170 204 169 151 167 196 211 228 209 192 217 111 111 141 147 131 141 236 218 146 112 120 240 229 216 263 303 91 148 132 127 157 181 140 136 125 132 220 254 134 144 168 118 254 270 262 215 214 236 241 241 233 216 212 210 200 194 191 185 184 184
191 179 177 181 179 171 157 98 342 358 72 157 166 159 166 169 141 136 176 205 207 151 145 182 175 180 203 193 147 166 192 196 185 192 215 215 222 275 181 137 134 136 123 155 227 154 115 96 88 288 295 329 332 346 50 32 74 115 260 177 142 165 141 144 174 175 153 184 155 102 272 269 275 271 250 260 267 266 249 224 216 212 200 191 188 181 179 182
196 176 165 168 181 180 176 190 206 256 288 342 39 62 199 229 197 160 202 224 204 166 162 200 188 181 211 127 116 169 212 203 195 204 208 200 190 81 162 157 158 158 146 186 151 141 215 147 100 4 333 339 348 354 341 341 36 216 243 192 176 135 103 118 134 90 260 220 157 143 246 255 273 308 303 286 283 274 253 226 213 210 198 189 189 184 181 185
180 188 186 170 185 193 203 190 156 150 176 145 8 232 191 256 218 202 217 215 197 180 162 191 175 141 122 99 92 94 36 11 252 329 11 209 218 52 123 175 203 184 196 216 138 137 200 206 130 130 192 260 273 284 272 255 235 231 194 194 210 157 134 154 123 110 245 233 151 172 235 263 293 320 323 314 314 289 257 219 207 208 197 189 191 190 186 189
158 198 235 200 199 200 198 188 142 125 147 164 251 246 159 147 233 220 207 199 206 191 165 167 164 122 86 125 119 95 290 342 15 8 279 228 251 324 106 98 45 162 134 107 108 103 103 234 194 170 192 212 205 216 215 162 169 216 204 201 200 191 170 132 112 175 201 178 199 223 238 283 291 285 293 292 277 266 248 210 204 206 198 193 196 195 191 194
166 197 246 171 221 208 115 130 132 116 142 172 191 218 189 201 299 245 204 213 221 194 180 161 168 167 179 171 157 203 234 347 9 248 223 201 223 320 254 165 92 163 151 130 148 105 89 290 243 191 222 235 201 210 227 157 212 217 210 206 193 188 168 153 192 210 152 133 259 239 200 250 269 256 237 252 250 243 242 220 210 205 199 197 201 204 205 203
165 208 214 168 200 202 119 196 148 110 104 138 163 154 162 203 242 203 197 205 223 195 189 286 241 209 191 173 160 176 191 331 292 226 190 167 187 48 31 255 219 184 168 161 200 119 116 232 239 174 261 268 226 233 245 210 236 229 211 213 197 181 180 193 216 207 158 201 253 244 172 223 260 257 223 227 228 218 220 217 212 208 202 200 208 225 233 216
157 163 173 175 199 168 143 169 139 122 97 75 108 178 169 189 223 229 179 107 337 250 188 224 256 231 201 180 154 157 189 199 249 244 190 155 182 164 136 227 223 209 178 142 261 134 145 221 220 138 286 288 291 310 263 205 251 271 239 228 211 196 199 209 221 210 198 232 253 262 266 265 267 259 225 230 241 235 229 224 220 216 210 212 229 246 240 218
210 185 171 167 157 120 120 108 116 120 82 38 252 235 181 181 213 234 176 163 196 263 179 213 251 228 187 182 167 194 213 185 153 261 182 152 167 208 200 191 166 156 186 150 95 70 165 238 203 104 327 295 305 354 356 202 224 255 257 245 223 213 218 226 233 220 218 247 256 264 278 276 269 254 219 231 239 238 236 233 229 224 223 232 244 243 227 210
228 216 186 160 139 126 131 111 111 119 84 225 208 227 208 204 207 192 190 208 196 172 184 203 203 126 82 184 209 237 237 192 114 305 189 169 181 202 209 188 151 141 155 170 143 126 154 230 22 75 359 282 310 4 336 318 270 260 267 254 226 214 215 219 220 200 202 230 248 258 259 262 264 230 198 226 228 226 234 237 236 236 238 244 242 229 215 206
235 226 205 172 150 179 168 123 98 131 210 213 193 199 218 235 205 169 179 252 212 192 210 199 167 118 82 202 230 247 246 219 291 333 176 171 60 133 136 143 141 141 162 161 127 127 147 144 132 109 197 269 303 335 322 352 347 276 262 242 217 212 217 228 233 215 208 213 225 225 234 251 265 148 197 231 216 218 236 241 243 246 248 247 238 226 218 209
Height
1528 1528 1529 1529 1529 1530 1530 1530 1531 1531 1530 1530 1530 1530 1529 1529 1528 1527 1526 1526 1525 1524 1524 1524 1524 1524 1524 1523 1523 1523 1522 1522 1522 1521 1520 1520 1520 1520 1520 1520 1521 1522 1522 1522 1522 1523 1523 1523 1523 1524 1523 1524 1525 1525 1527 1528 1529 1529 1533 1537 1539 1544 1542 1539 1542 1541 1537 1537 1538 1539 1539 1540 1541 1542 1542 1542 1541 1540 1539 1538 1538 1538 1537 1537 1538 1538 1538 1539
1528 1528 1529 1529 1529 1530 1530 1530 1530 1530 1530 1530 1530 1529 1529 1528 1527 1526 1525 1525 1524 1524 1524 1524 1523 1523 1523 1523 1523 1523 1522 1523 1522 1521 1520 1520 1520 1520 1520 1520 1521 1522 1522 1522 1523 1523 1523 1523 1523 1523 1524 1524 1525 1526 1527 1528 1529 1531 1536 1538 1537 1540 1538 1537 1539 1538 1538 1537 1537 1539 1539 1540 1541 1541 1541 1541 1539 1539 1538 1537 1537 1536 1535 1536 1536 1537 1537 1538
1528 1528 1529 1529 1529 1530 1529 1529 1529 1529 1529 1529 1529 1528 1528 1527 1526 1525 1524 1524 1524 1523 1524 1523 1523 1522 1522 1522 1523 1522 1522 1522 1522 1521 1520 1520 1520 1520 1520 1521 1521 1521 1522 1522 1522 1523 1523 1523 1523 1523 1524 1524 1526 1526 1527 1529 1529 1531 1535 1535 1535 1538 1538 1538 1538 1537 1537 1537 1538 1539 1539 1541 1541 1541 1541 1540 1538 1538 1537 1535 1535 1534 1534 1535 1535 1536 1537 1537
1528 1528 1529 1529 1529 1529 1529 1529 1529 1529 1529 1528 1528 1527 1527 1526 1525 1525 1524 1524 1524 1523 1523 1523 1523 1522 1522 1522 1522 1522 1522 1522 1521 1521 1521 1520 1520 1520 1520 1521 1521 1521 1522 1522 1522 1523 1523 1523 1523 1523 1523 1525 1526 1527 1528 1529 1530 1532 1533 1533 1536 1538 1538 1537 1537 1537 1537 1537 1539 1539 1540 1541 1540 1540 1540 1540 1538 1535 1534 1533 1533 1533 1533 1534 1534 1535 1536 1536
1528 1528 1528 1529 1529 1529 1529 1529 1529 1528 1528 1528 1527 1527 1526 1525 1525 1524 1524 1524 1524 1524 1524 1523 1523 1522 1522 1522 1522 1522 1522 1522 1521 1521 1520 1520 1520 1520 1521 1521 1521 1521 1522 1522 1522 1522 1523 1522 1523 1523 1523 1525 1527 1527 1529 1530 1530 1532 1535 1536 1537 1538 1536 1536 1537 1537 1537 1538 1539 1540 1540 1539 1539 1539 1538 1539 1538 1533 1532 1532 1532 1532 1532 1533 1533 1534 1535 1535
1528 1528 1528 1528 1529 1529 1528 1528 1528 1528 1528 1528 1527 1527 1526 1525 1525 1525 1524 1524 1523 1524 1524 1524 1523 1523 1522 1522 1522 1522 1522 1522 1521 1521 1520 1520 1520 1520 1520 1520 1521 1521 1521 1522 1522 1523 1523 1523 1523 1523 1524 1526 1528 1528 1529 1531 1531 1531 1535 1538 1537 1537 1535 1536 1537 1537 1537 1538 1539 1540 1539 1539 1539 1537 1537 1537 1534 1531 1531 1532 1532 1532 1532 1533 1533 1533 1534 1535
1528 1528 1528 1528 1528 1528 1528 1528 1528 1528 1528 1527 1527 1526 1526 1525 1525 1525 1524 1523 1523 1523 1524 1524 1523 1523 1523 1522 1522 1521 1521 1521 1521 1521 1520 1520 1520 1520 1520 1520 1521 1521 1521 1522 1522 1523 1523 1523 1523 1524 1525 1527 1529 1529 1530 1531 1532 1532 1535 1537 1536 1536 1536 1536 1538 1538 1538 1539 1539 1539 1539 1538 1538 1537 1536 1532 1528 1529 1531 1530 1530 1530 1531 1531 1532 1533 1533 1533
1527 1527 1528 1528 1528 1528 1527 1527 1527 1527 1527 1527 1526 1526 1525 1525 1525 1525 1524 1523 1523 1523 1523 1523 1524 1523 1523 1523 1522 1521 1519 1520 1521 1520 1520 1520 1520 1520 1520 1520 1520 1520 1521 1521 1522 1522 1522 1523 1523 1524 1526 1528 1528 1529 1531 1531 1532 1533 1534 1536 1536 1536 1536 1537 1538 1538 1539 1539 1539 1539 1538 1537 1536 1536 1534 1528 1525 1528 1528 1528 1528 1528 1529 1530 1530 1531 1532 1532
1527 1527 1527 1527 1527 1527 1527 1527 1526 1526 1526 1526 1526 1526 1525 1525 1524 1524 1524 1523 1522 1522 1523 1523 1523 1523 1523 1523 1521 1520 1520 1520 1521 1520 1520 1520 1520 1520 1520 1519 1520 1520 1520 1521 1521 1522 1522 1523 1523 1524 1525 1527 1528 1529 1531 1531 1531 1533 1534 1535 1535 1536 1537 1538 1539 1539 1539 1539 1539 1538 1537 1536 1536 1536 1531 1524 1525 1526 1526 1525 1525 1526 1526 1527 1529 1530 1531 1531
1526 1526 1526 1526 1526 1527 1527 1527 1526 1526 1526 1526 1525 1525 1525 1524 1523 1523 1523 1523 1522 1521 1522 1522 1522 1522 1522 1522 1520 1520 1521 1521 1520 1520 1520 1520 1519 1519 1519 1519 1519 1519 1520 1521 1521 1522 1523 1523 1523 1524 1524 1526 1529 1530 1532 1532 1531 1532 1534 1535 1536 1537 1538 1539 1539 1539 1539 1538 1538 1537 1536 1535 1535 1535 1528 1523 1525 1525 1524 1524 1524 1524 1525 1526 1528 1529 1530 1530
1525 1525 1525 1525 1525 1526 1526 1526 1526 1526 1525 1525 1525 1524 1524 1523 1523 1523 1523 1522 1521 1521 1521 1521 1522 1521 1521 1520 1519 1520 1521 1521 1521 1521 1520 1520 1519 1518 1518 1518 1519 1519 1519 1520 1521 1522 1522 1523 1523 1523 1524 1526 1529 1532 1533 1533 1532 1533 1534 1535 1538 1539 1539 1540 1539 1539 1538 1537 1537 1537 1535 1534 1536 1534 1526 1523 1524 1524 1523 1524 1523 1524 1525 1526 1527 1528 1528 1529
1523 1523 1523 1524 1524 1525 1525 1525 1525 1524 1524 1524 1523 1523 1523 1523 1523 1522 1522 1522 1521 1521 1521 1521 1521 1520 1520 1519 1518 1520 1521 1521 1521 1520 1520 1519 1519 1518 1518 1518 1518 1519 1520 1521 1521 1522 1523 1523 1523 1523 1524 1526 1529 1532 1533 1533 1534 1534 1535 1536 1539 1540 1539 1539 1539 1539 1538 1537 1536 1536 1532 1530 1533 1530 1523 1523 1524 1523 1523 1523 1523 1524 1524 1525 1526 1527 1527 1528
1522 1522 1522 1523 1523 1523 1523 1524 1524 1524 1523 1523 1523 1523 1523 1523 1523 1522 1522 1521 1521 1520 1520 1520 1520 1519 1519 1518 1519 1520 1520 1521 1521 1520 1520 1519 1519 1519 1518 1518 1519 1519 1520 1521 1522 1523 1523 1523 1523 1524 1525 1527 1530 1531 1532 1534 1534 1535 1537 1537 1538 1538 1538 1539 1539 1538 1538 1537 1536 1535 1529 1524 1527 1526 1522 1523 1523 1523 1523 1522 1523 1524 1524 1525 1525 1526 1527 1528
1522 1522 1522 1522 1522 1522 1523 1523 1523 1523 1523 1523 1523 1523 1523 1523 1522 1522 1522 1521 1521 1520 1520 1520 1519 1519 1518 1519 1520 1520 1521 1521 1520 1520 1520 1520 1520 1519 1519 1519 1519 1520 1521 1522 1522 1523 1523 1524 1523 1524 1526 1527 1529 1530 1532 1536 1535 1537 1537 1539 1542 1536 1533 1539 1540 1538 1537 1536 1536 1536 1532 1524 1523 1523 1522 1522 1522 1522 1522 1522 1523 1523 1524 1524 1525 1526 1526 1527
1521 1521 1521 1521 1521 1522 1523 1523 1523 1523 1523 1523 1523 1523 1523 1523 1522 1522 1522 1521 1521 1520 1520 1520 1519 1519 1519 1520 1520 1521 1521 1520 1520 1521 1520 1521 1520 1520 1520 1520 1520 1521 1521 1522 1522 1523 1523 1524 1524 1525 1528 1528 1529 1530 1533 1536 1537 1539 1535 1535 1543 1538 1533 1539 1541 1540 1538 1537 1537 1536 1532 1527 1523 1522 1521 1522 1521 1522 1522 1522 1523 1523 1524 1524 1524 1525 1525 1526
1519 1520 1520 1520 1521 1522 1522 1523 1523 1523 1523 1523 1523 1523 1523 1523 1523 1522 1522 1521 1521 1520 1520 1520 1520 1520 1520 1520 1521 1521 1521 1521 1521 1521 1521 1521 1521 1521 1521 1521 1522 1522 1522 1523 1523 1524 1523 1524 1526 1528 1529 1529 1531 1531 1533 1535 1535 1540 1536 1531 1538 1537 1534 1537 1539 1541 1540 1538 1537 1536 1533 1527 1523 1521 1521 1522 1521 1521 1522 1521 1522 1522 1523 1523 1523 1524 1524 1525
1518 1518 1518 1519 1520 1521 1522 1522 1522 1522 1522 1523 1522 1523 1523 1522 1522 1522 1522 1521 1521 1521 1520 1520 1520 1520 1520 1521 1521 1521 1521 1522 1521 1522 1522 1522 1522 1522 1522 1522 1523 1523 1523 1523 1523 1524 1524 1525 1527 1528 1530 1533 1536 1533 1532 1534 1531 1536 1538 1535 1539 1541 1537 1534 1535 1540 1541 1539 1538 1538 1537 1528 1522 1521 1520 1521 1521 1520 1520 1519 1520 1521 1521 1522 1522 1523 1523 1524
1516 1516 1517 1518 1519 1520 1521 1521 1521 1522 1522 1522 1522 1522 1522 1522 1522 1521 1521 1521 1521 1521 1520 1520 1520 1520 1521 1521 1522 1522 1522 1522 1522 1523 1522 1522 1522 1522 1523 1523 1524 1524 1524 1524 1524 1525 1524 1526 1528 1529 1531 1533 1537 1534 1530 1533 1532 1532 1534 1534 1538 1542 1541 1536 1535 1539 1541 1539 1538 1538 1536 1527 1522 1522 1519 1519 1520 1518 1517 1517 1517 1518 1519 1520 1521 1521 1522 1522
1516 1516 1517 1518 1519 1519 1520 1521 1521 1522 1522 1522 1523 1522 1522 1522 1521 1521 1522 1522 1522 1521 1521 1521 1520 1522 1523 1522 1522 1522 1522 1522 1522 1522 1522 1523 1523 1523 1523 1524 1525 1525 1524 1524 1524 1525 1525 1527 1527 1528 1531 1536 1542 1541 1536 1538 1538 1537 1538 1537 1537 1537 1537 1538 1540 1542 1543 1540 1537 1537 1534 1528 1523 1520 1517 1516 1517 1516 1514 1515 1515 1515 1517 1517 1519 1519 1520 1521
1516 1517 1517 1518 1519 1519 1520 1521 1521 1522 1522 1522 1523 1523 1522 1522 1522 1522 1522 1522 1522 1522 1523 1522 1522 1523 1523 1522 1522 1522 1522 1522 1522 1522 1523 1523 1523 1524 1524 1524 1525 1525 1525 1526 1526 1527 1527 1528 1532 1535 1539 1545 1548 1549 1547 1547 1547 1544 1542 1541 1542 1540 1535 1539 1543 1544 1545 1539 1535 1539 1537 1531 1524 1518 1516 1515 1514 1514 1512 1512 1513 1513 1514 1515 1517 1518 1518 1520
1517 1517 1518 1518 1519 1519 1520 1521 1521 1522 1522 1522 1523 1523 1522 1522 1523 1522 1522 1523 1523 1523 1523 1523 1523 1523 1523 1523 1522 1522 1523 1522 1522 1523 1523 1523 1524 1523 1523 1524 1525 1525 1528 1530 1528 1528 1527 1528 1537 1545 1547 1549 1550 1552 1551 1549 1549 1545 1542 1539 1541 1544 1538 1540 1545 1544 1546 1541 1536 1541 1536 1525 1521 1517 1514 1514 1513 1511 1510 1511 1511 1512 1513 1514 1515 1516 1517 1518
1518 1518 1518 1519 1519 1520 1520 1521 1521 1522 1522 1522 1522 1523 1523 1522 1522 1522 1522 1523 1524 1524 1524 1524 1524 1523 1523 1523 1522 1523 1523 1523 1523 1523 1523 1523 1523 1523 1523 1524 1525 1526 1531 1531 1527 1529 1529 1533 1544 1549 1549 1550 1551 1553 1550 1548 1548 1544 1543 1539 1537 1543 1542 1541 1545 1546 1547 1541 1534 1538 1534 1521 1518 1516 1513 1512 1512 1510 1510 1510 1510 1511 1512 1513 1513 1514 1515 1517
1519 1519 1519 1519 1519 1520 1520 1521 1521 1521 1522 1522 1522 1522 1522 1522 1522 1523 1523 1523 1524 1525 1524 1524 1524 1524 1523 1523 1523 1523 1523 1523 1523 1523 1523 1522 1523 1523 1522 1524 1527 1528 1530 1530 1527 1526 1529 1538 1548 1550 1549 1550 1550 1552 1550 1546 1546 1545 1543 1539 1538 1545 1543 1536 1541 1546 1547 1544 1539 1539 1536 1524 1516 1513 1511 1510 1510 1510 1510 1509 1509 1510 1511 1511 1512 1513 1514 1515
1519 1519 1519 1519 1520 1520 1520 1521 1521 1521 1522 1522 1522 1522 1522 1522 1522 1523 1523 1524 1525 1525 1524 1524 1524 1524 1524 1524 1524 1523 1523 1524 1524 1523 1523 1522 1522 1523 1523 1526 1528 1529 1532 1534 1530 1529 1535 1545 1549 1549 1550 1550 1547 1549 1549 1541 1542 1547 1547 1543 1542 1547 1547 1542 1545 1546 1544 1545 1545 1539 1529 1518 1513 1511 1509 1510 1510 1509 1509 1509 1508 1509 1510 1510 1511 1511 1513 1514
1519 1519 1519 1519 1519 1519 1520 1520 1521 1521 1521 1521 1522 1522 1523 1523 1523 1524 1524 1526 1526 1525 1525 1525 1524 1524 1524 1524 1524 1524 1524 1524 1524 1524 1523 1522 1522 1522 1524 1526 1526 1529 1537 1538 1532 1533 1542 1548 1549 1549 1549 1549 1546 1545 1547 1543 1538 1543 1549 1550 1549 1549 1550 1549 1548 1544 1535 1534 1543 1541 1524 1512 1513 1511 1509 1511 1511 1509 1508 1509 1508 1508 1509 1509 1510 1511 1512 1513
1519 1519 1519 1519 1519 1519 1520 1520 1521 1521 1521 1521 1522 1523 1523 1523 1524 1524 1524 1528 1528 1525 1525 1525 1525 1525 1525 1525 1524 1525 1525 1525 1525 1524 1523 1523 1522 1522 1524 1527 1527 1530 1536 1538 1534 1537 1545 1549 1549 1549 1547 1547 1545 1543 1548 1548 1538 1537 1548 1555 1554 1553 1552 1551 1548 1540 1531 1530 1543 1547 1531 1519 1514 1507 1508 1513 1512 1509 1508 1508 1508 1508 1508 1509 1510 1511 1511 1513
1519 1519 1519 1519 1519 1520 1520 1520 1521 1521 1521 1522 1522 1523 1523 1523 1524 1523 1526 1532 1530 1525 1525 1525 1525 1525 1525 1525 1524 1524 1524 1524 1524 1524 1523 1522 1522 1522 1523 1526 1528 1530 1535 1535 1532 1539 1547 1548 1548 1548 1547 1545 1542 1541 1548 1550 1539 1539 1552 1557 1555 1554 1552 1552 1549 1541 1539 1539 1542 1547 1540 1531 1521 1508 1510 1516 1511 1508 1508 1507 1507 1507 1508 1508 1509 1510 1511 1512
1519 1519 1519 1520 1520 1520 1520 1521 1521 1522 1522 1522 1523 1524 1523 1524 1524 1523 1528 1533 1530 1525 1525 1525 1525 1525 1525 1525 1524 1524 1524 1524 1524 1524 1523 1522 1522 1522 1522 1527 1529 1531 1536 1532 1528 1540 1548 1546 1546 1547 1545 1543 1542 1545 1550 1550 1543 1546 1556 1557 1555 1556 1553 1555 1551 1545 1549 1543 1531 1540 1544 1533 1520 1510 1512 1515 1510 1508 1507 1506 1507 1507 1507 1508 1508 1509 1510 1512
1519 1519 1519 1520 1520 1520 1521 1521 1521 1522 1522 1523 1523 1523 1523 1524 1523 1524 1531 1533 1528 1525 1525 1525 1525 1525 1525 1525 1525 1524 1524 1524 1524 1523 1523 1523 1522 1522 1523 1528 1530 1532 1536 1533 1532 1542 1547 1545 1547 1547 1544 1543 1547 1552 1553 1550 1548 1551 1557 1556 1556 1558 1556 1556 1551 1545 1548 1538 1526 1538 1546 1532 1515 1508 1511 1513 1509 1506 1505 1506 1507 1507 1507 1508 1508 1509 1510 1511
1519 1519 1520 1520 1520 1521 1520 1521 1521 1521 1522 1522 1523 1523 1524 1524 1524 1529 1536 1532 1526 1526 1525 1524 1525 1526 1526 1526 1525 1525 1525 1524 1525 1524 1523 1523 1523 1523 1525 1528 1530 1531 1535 1536 1539 1545 1547 1547 1548 1548 1547 1548 1551 1554 1554 1552 1551 1553 1555 1554 1554 1555 1554 1554 1552 1548 1541 1531 1531 1545 1549 1538 1518 1505 1505 1507 1504 1501 1502 1505 1507 1507 1507 1507 1508 1509 1510 1511
1519 1519 1520 1520 1520 1520 1520 1521 1521 1521 1522 1522 1522 1523 1523 1524 1527 1533 1535 1529 1526 1527 1525 1525 1528 1527 1527 1527 1526 1526 1526 1526 1526 1525 1524 1525 1525 1524 1526 1527 1528 1530 1533 1535 1540 1545 1547 1546 1547 1549 1549 1550 1551 1552 1554 1554 1554 1554 1552 1549 1544 1542 1545 1544 1544 1544 1534 1526 1537 1550 1551 1545 1524 1503 1500 1501 1500 1501 1500 1501 1504 1505 1506 1507 1507 1509 1510 1511
1519 1519 1519 1519 1520 1520 1520 1521 1520 1521 1521 1521 1523 1523 1523 1528 1530 1530 1530 1526 1525 1527 1526 1528 1529 1529 1529 1529 1529 1530 1529 1527 1527 1528 1528 1529 1529 1529 1531 1530 1529 1529 1530 1533 1537 1540 1543 1546 1549 1549 1549 1550 1549 1548 1551 1553 1554 1552 1548 1543 1535 1532 1536 1534 1534 1541 1535 1529 1541 1551 1547 1540 1521 1501 1497 1497 1497 1500 1500 1500 1502 1504 1505 1506 1507 1508 1509 1510
1518 1519 1519 1519 1519 1519 1520 1520 1520 1521 1520 1521 1523 1522 1525 1531 1531 1530 1530 1526 1525 1528 1530 1530 1531 1532 1531 1527 1529 1533 1531 1529 1529 1530 1531 1531 1530 1532 1536 1536 1535 1530 1529 1536 1537 1534 1537 1544 1548 1548 1547 1550 1549 1544 1542 1545 1549 1549 1545 1540 1534 1535 1539 1536 1539 1546 1539 1531 1542 1553 1545 1528 1511 1500 1499 1498 1497 1499 1500 1501 1502 1503 1504 1505 1507 1508 1508 1510
1518 1518 1518 1519 1519 1519 1519 1519 1520 1520 1521 1522 1522 1523 1529 1531 1530 1530 1530 1526 1529 1532 1532 1532 1532 1531 1530 1528 1531 1533 1529 1529 1532 1530 1529 1530 1527 1528 1532 1535 1538 1533 1532 1537 1537 1535 1533 1533 1542 1546 1545 1548 1550 1546 1543 1544 1547 1549 1550 1545 1538 1540 1540 1538 1539 1537 1534 1535 1540 1546 1535 1513 1502 1499 1499 1500 1499 1499 1500 1500 1502 1502 1504 1505 1505 1507 1508 1509
1517 1518 1518 1518 1518 1518 1519 1519 1519 1520 1521 1522 1522 1527 1531 1528 1526 1528 1526 1526 1531 1532 1531 1534 1531 1527 1529 1531 1533 1534 1529 1527 1532 1531 1529 1529 1527 1527 1529 1531 1536 1535 1531 1531 1535 1541 1536 1531 1543 1549 1547 1549 1549 1548 1550 1546 1544 1550 1554 1546 1541 1542 1541 1546 1556 1554 1552 1547 1538 1535 1525 1509 1503 1498 1499 1501 1498 1499 1500 1499 1502 1502 1502 1504 1504 1506 1507 1507
1517 1517 1517 1517 1518 1518 1518 1518 1519 1520 1521 1522 1524 1528 1528 1524 1524 1527 1525 1527 1529 1528 1529 1530 1528 1526 1527 1528 1530 1534 1532 1529 1531 1530 1529 1531 1530 1530 1532 1532 1535 1535 1531 1529 1532 1538 1534 1534 1547 1550 1547 1551 1549 1548 1551 1545 1541 1546 1547 1542 1546 1552 1547 1548 1560 1570 1569 1550 1531 1529 1519 1507 1504 1497 1496 1501 1497 1498 1500 1498 1500 1501 1501 1503 1503 1504 1506 1507
1517 1517 1517 1517 1517 1517 1518 1518 1519 1520 1521 1522 1524 1526 1526 1525 1526 1528 1528 1528 1528 1528 1527 1525 1526 1527 1526 1526 1527 1530 1531 1531 1532 1529 1527 1531 1529 1528 1532 1532 1534 1535 1534 1532 1530 1532 1532 1533 1545 1550 1546 1549 1550 1548 1550 1549 1546 1544 1542 1544 1550 1553 1551 1547 1547 1553 1557 1544 1529 1528 1522 1511 1507 1499 1496 1500 1497 1497 1499 1498 1500 1501 1500 1501 1502 1503 1505 1506
1516 1517 1517 1517 1517 1517 1518 1518 1519 1520 1521 1523 1524 1525 1527 1526 1527 1529 1529 1529 1528 1528 1526 1523 1525 1529 1529 1526 1526 1531 1532 1529 1530 1529 1527 1528 1526 1525 1529 1530 1533 1536 1536 1534 1530 1533 1535 1530 1540 1552 1548 1547 1552 1548 1545 1549 1551 1546 1545 1550 1549 1543 1543 1546 1544 1540 1543 1543 1532 1527 1528 1522 1511 1500 1494 1495 1495 1494 1496 1498 1498 1498 1498 1499 1500 1502 1503 1505
1516 1517 1516 1517 1517 1517 1518 1518 1519 1520 1521 1524 1523 1523 1527 1528 1527 1529 1528 1529 1528 1526 1526 1525 1527 1532 1532 1529 1527 1531 1533 1528 1529 1529 1525 1526 1525 1525 1529 1529 1531 1535 1535 1535 1532 1533 1536 1529 1532 1547 1550 1548 1549 1545 1539 1542 1550 1551 1549 1552 1551 1546 1542 1543 1548 1543 1539 1542 1538 1529 1522 1509 1498 1495 1490 1486 1490 1492 1492 1495 1496 1495 1495 1496 1498 1500 1501 1503
1516 1516 1516 1517 1517 1517 1518 1518 1519 1520 1520 1524 1524 1523 1527 1528 1527 1528 1528 1528 1528 1526 1526 1528 1529 1529 1530 1533 1532 1531 1533 1531 1530 1528 1525 1527 1524 1524 1529 1529 1530 1534 1535 1537 1535 1534 1538 1531 1528 1542 1551 1546 1540 1540 1537 1536 1542 1545 1545 1547 1548 1549 1549 1546 1549 1551 1544 1539 1541 1539 1522 1497 1488 1492 1487 1483 1487 1489 1488 1490 1492 1492 1493 1494 1496 1498 1499 1501
1515 1516 1516 1516 1516 1517 1518 1518 1520 1522 1522 1524 1526 1526 1528 1527 1526 1528 1528 1528 1529 1528 1528 1529 1529 1527 1527 1530 1530 1531 1532 1532 1531 1529 1526 1526 1523 1522 1529 1530 1530 1533 1533 1534 1534 1533 1534 1532 1530 1537 1541 1535 1534 1543 1546 1542 1543 1541 1537 1539 1540 1541 1544 1540 1541 1553 1555 1545 1542 1545 1528 1496 1485 1490 1487 1485 1488 1488 1489 1489 1490 1490 1491 1492 1495 1496 1498 1500
1515 1516 1515 1515 1516 1517 1517 1519 1523 1526 1523 1522 1525 1527 1528 1527 1527 1528 1528 1528 1528 1528 1529 1529 1529 1530 1528 1527 1528 1531 1531 1529 1531 1530 1525 1525 1525 1524 1529 1532 1531 1532 1531 1531 1533 1533 1533 1533 1532 1530 1532 1536 1542 1548 1549 1547 1548 1547 1542 1542 1542 1539 1537 1533 1532 1542 1553 1554 1552 1554 1537 1499 1484 1491 1490 1488 1490 1488 1489 1490 1489 1490 1490 1492 1494 1495 1497 1499
1515 1515 1515 1515 1516 1516 1517 1520 1523 1525 1524 1525 1527 1527 1528 1528 1528 1528 1528 1528 1528 1528 1529 1528 1528 1528 1528 1528 1529 1530 1529 1526 1527 1527 1524 1525 1528 1529 1532 1532 1531 1532 1532 1530 1532 1534 1533 1532 1530 1526 1529 1540 1547 1550 1551 1551 1549 1545 1543 1546 1545 1539 1535 1535 1537 1538 1543 1547 1546 1549 1534 1496 1481 1492 1491 1488 1490 1488 1488 1489 1488 1489 1489 1490 1492 1493 1495 1497
1514 1514 1515 1515 1515 1516 1517 1518 1518 1520 1524 1527 1527 1527 1527 1528 1527 1527 1528 1528 1528 1528 1527 1527 1528 1527 1528 1530 1529 1529 1529 1524 1521 1525 1526 1526 1528 1531 1532 1532 1532 1532 1531 1530 1531 1532 1530 1529 1530 1528 1526 1529 1533 1536 1538 1543 1546 1539 1539 1545 1544 1541 1540 1539 1543 1543 1539 1537 1534 1533 1520 1492 1483 1491 1489 1487 1489 1486 1486 1487 1486 1488 1488 1488 1491 1492 1493 1495
1514 1514 1514 1515 1515 1515 1515 1516 1516 1518 1523 1526 1525 1525 1526 1526 1527 1527 1527 1527 1527 1528 1527 1526 1527 1527 1529 1531 1529 1531 1533 1527 1522 1525 1528 1528 1529 1532 1532 1531 1532 1532 1531 1532 1533 1531 1530 1530 1529 1525 1523 1522 1521 1519 1521 1528 1536 1537 1538 1543 1541 1541 1539 1534 1538 1540 1533 1535 1536 1523 1503 1487 1484 1488 1485 1485 1487 1484 1483 1485 1484 1486 1486 1487 1489 1490 1491 1493
1514 1513 1514 1514 1514 1515 1515 1516 1516 1516 1521 1522 1521 1523 1525 1524 1526 1527 1527 1527 1527 1527 1527 1526 1527 1527 1528 1529 1527 1528 1532 1532 1529 1527 1526 1526 1529 1532 1532 1532 1532 1532 1532 1533 1533 1533 1533 1532 1529 1524 1521 1520 1517 1520 1528 1531 1529 1528 1531 1535 1538 1541 1539 1535 1537 1533 1527 1535 1533 1511 1497 1491 1485 1483 1483 1483 1484 1484 1483 1483 1483 1483 1484 1485 1487 1488 1489 1491
1513 1513 1514 1514 1513 1513 1514 1515 1516 1515 1517 1517 1517 1521 1523 1523 1525 1526 1526 1527 1526 1527 1527 1526 1527 1525 1524 1526 1525 1525 1530 1533 1532 1528 1526 1526 1529 1532 1532 1532 1532 1532 1532 1532 1532 1533 1532 1529 1530 1529 1524 1525 1525 1528 1535 1534 1527 1523 1524 1527 1531 1537 1539 1535 1530 1523 1523 1528 1515 1496 1499 1499 1483 1478 1482 1480 1480 1483 1483 1481 1480 1480 1481 1483 1485 1486 1487 1488
1512 1512 1515 1514 1513 1513 1514 1514 1516 1516 1517 1517 1518 1521 1522 1522 1522 1521 1523 1526 1526 1526 1525 1524 1524 1523 1522 1523 1521 1522 1528 1529 1527 1526 1525 1526 1530 1531 1531 1532 1533 1532 1532 1533 1532 1532 1531 1527 1530 1533 1526 1526 1531 1534 1536 1534 1529 1527 1525 1522 1525 1532 1534 1529 1522 1521 1521 1515 1497 1487 1496 1496 1481 1476 1480 1478 1478 1479 1478 1479 1479 1478 1480 1482 1482 1483 1484 1484
1512 1512 1514 1514 1513 1514 1515 1515 1516 1517 1517 1518 1519 1519 1520 1519 1518 1518 1522 1525 1523 1525 1525 1520 1519 1521 1522 1523 1521 1520 1522 1520 1517 1520 1523 1525 1528 1528 1527 1528 1531 1532 1533 1532 1532 1533 1530 1526 1532 1536 1527 1523 1530 1536 1538 1535 1529 1526 1523 1521 1522 1525 1526 1521 1517 1517 1517 1508 1495 1492 1498 1492 1476 1472 1477 1477 1477 1477 1477 1477 1478 1478 1478 1479 1479 1479 1479 1480
1511 1510 1511 1512 1513 1514 1515 1515 1516 1516 1518 1519 1517 1517 1519 1518 1515 1517 1520 1519 1517 1522 1524 1519 1517 1520 1522 1523 1521 1518 1517 1515 1513 1516 1520 1521 1523 1524 1522 1519 1524 1532 1533 1531 1533 1533 1528 1527 1534 1536 1526 1522 1530 1536 1537 1536 1532 1525 1518 1519 1522 1523 1523 1522 1518 1517 1518 1510 1499 1500 1506 1493 1469 1464 1473 1475 1474 1475 1475 1474 1475 1474 1474 1475 1475 1475 1475 1475
1510 1510 1510 1511 1512 1514 1515 1515 1517 1516 1517 1518 1515 1515 1517 1516 1515 1516 1516 1515 1514 1517 1520 1518 1517 1520 1524 1524 1522 1517 1516 1518 1517 1516 1518 1518 1517 1519 1519 1516 1520 1527 1530 1531 1532 1531 1529 1530 1534 1533 1524 1519 1529 1535 1531 1529 1530 1522 1511 1509 1515 1517 1514 1512 1510 1510 1507 1500 1498 1504 1505 1484 1462 1462 1469 1470 1470 1472 1471 1470 1469 1469 1470 1471 1470 1470 1470 1470
1510 1509 1510 1509 1510 1514 1514 1515 1517 1515 1512 1513 1513 1513 1514 1513 1515 1515 1512 1513 1515 1515 1516 1517 1517 1519 1521 1522 1520 1516 1517 1519 1518 1518 1518 1518 1518 1518 1517 1518 1519 1521 1525 1529 1530 1531 1532 1528 1528 1531 1522 1517 1531 1538 1529 1524 1519 1506 1492 1488 1493 1499 1501 1500 1500 1499 1495 1492 1494 1495 1482 1464 1460 1465 1467 1466 1468 1469 1466 1465 1465 1464 1465 1466 1465 1465 1466 1466